Погода в Кумане

Венесуэла     10°27′31″N   64°10′26″W
темп.,
°C
ветер,
м/с
пор.,
м/с
влажн.,
%
обл.,
%
осадки,
мм/ч
давл.,
гПа
погр.,
м
15 августа, пн
пн1523:00+27ю2278100 0.2 101499
02:00+26ю227898 0.2 1012113
05:00+26ю1175100 0.0 1012110
08:00+26вюв117332 0.0 1014210
11:00+28ссз22695 0.0 1014398
14:00+28зсз22725 0.8 1012405
17:00+29св456811 1.3 1010508
20:00+27в34790 1.6 1011109
16 августа, вт
вт1623:00+27в36780 0.2 1013303
02:00+26в35750 0.2 1012286
05:00+26вюв23720 0.0 1012186
08:00+26юв23650 0.0 1013268
11:00+28юз02630 0.0 1014327
14:00+28сз22702 0.0 1011484
17:00+27св587973 2.3 1010402
20:00+27всв710845 2.7 1011396
17 августа, ср
ср1723:00+27в510815 0.0 1013451
02:00+26в59825 0.0 1011418
05:00+25вюв47795 0.0 1011284
08:00+26в47764 0.0 1013404
11:00+29св57702 0.0 1013391
14:00+29св89700 0.0 1011449
17:00+28всв79730 0.3 1010549
20:00+28всв610780 0.4 1012723
18 августа, чт
чт1823:00+27в59820 0.0 1013568
02:00+26в58820 0.0 1011491
05:00+26в478016 0.0 1011389
08:00+26в46748 0.0 1012397
11:00+29св57676 0.0 1012418
14:00+29св67710 0.0 1009369
17:00+28всв677568 1.9 1009398
20:00+27всв5880100 3.0 1011383
19 августа, пт
пт1923:00+27в358171 0.3 1012242
02:00+26в358121 0.8 1010267
05:00+26вюв34797 0.0 1011235
08:00+27юв12725 0.0 1012232
11:00+28зсз43743 0.0 1012458
14:00+28сз32755 0.1 1010403
17:00+29св457146 0.1 1010291
20:00+28юв23785 1.0 101171